Regional Weather Roundup
Issued by NWS Grand Forks, ND

Home | Current Version | Previous Version | Graphics & Text | Print | Product List | Glossary On
Versions: 1 2 3 4 5 6 7 8 9 10 11 12 13 14 15 16 17 18 19 20 21 22 23 24 25 26 27 28 29 30 31 32 33 34 35 36 37 38 39 40 41 42 43 44 45 46 47 48 49 50
000
ASUS43 KFGF 230031
RWRFGF
PRAIRIE TO PINES  WEATHER ROUNDUP
NATIONAL WEATHER SERVICE EASTERN NORTH DAKOTA/GRAND FORKS ND
700 PM CDT SUN APR 22 2018

 **SATELLITE DATA USED TO AUGMENT SKY COVER AT AUTOMATED STATIONS**
 *****  WEATHER ACROSS EASTERN NORTH DAKOTA  *****

CITY           SKY/WX    TMP DP  RH WIND       PRES   REMARKS
GRAND FORKS    FAIR      61  46  57 S15       30.11F
6HR MIN TEMP:  56; 6HR MAX TEMP:  62;

GRAND FRKS AFB FAIR      61  44  53 S17       30.10F
GRAND FRKS NWS   N/A     61  45  56 S13       30.08F
DEVILS LAKE    CLOUDY    60  39  45 NW3       30.09F
6HR MIN TEMP:  57; 6HR MAX TEMP:  62;

FARGO          FAIR      63  37  38 S16G26    30.14F
WAHPETON ARPT  FAIR      57  37  47 S16       30.19S
$$

 ***** WEATHER ACROSS CENTRAL AND WESTERN NORTH DAKOTA  *****

CITY           SKY/WX    TMP DP  RH WIND       PRES   REMARKS
BISMARCK       CLOUDY    66  38  35 SE14      30.06S
6HR MIN TEMP:  63; 6HR MAX TEMP:  71;

MINOT          FAIR      65  28  24 W8        30.07F
6HR MIN TEMP:  60; 6HR MAX TEMP:  65; 6HR PCP: TRACE;

JAMESTOWN      FAIR      63  37  38 S17       30.10F
6HR MIN TEMP:  60; 6HR MAX TEMP:  66;

MINOT AFB      FAIR      64  29  27 SW5       30.06S
GARRISON         N/A     60  34  37 CALM      30.09S
WILLISTON      FAIR      66  23  19 W14       30.07F
6HR MIN TEMP:  60; 6HR MAX TEMP:  68;

DICKINSON      FAIR      65  20  17 NW5       30.07R
6HR MIN TEMP:  63; 6HR MAX TEMP:  68;

HETTINGER      FAIR      68  33  27 N6        30.07S
6HR MIN TEMP:  62; 6HR MAX TEMP:  69;

$$

 *****  OTHER AIRPORT OBSERVATIONS IN OUR AREA  *****

CITY           SKY/WX    TMP DP  RH WIND       PRES   REMARKS
WALHALLA       FAIR      61  37  41 SW8       30.08S
GRAFTON AIRPOR NOT AVBL
VALLEY CITY AR NOT AVBL
CANDO          FAIR      59  37  44 S8        30.10F
CAVALIER APRT    N/A     61  41  48 SW7       30.08S
GWINNER          N/A     61  39  44 SW13      30.15S
SHEYENNE NWR     N/A     64  38  38 S14       29.95S
ROLLA          CLOUDY    57  36  44 SW7       30.08F
 ***** THE ABOVE OBSERVATIONS ARE NON NWS ARE NOT QUALITY
       CONTROLLED AND MAY MIS-REPORT RAIN FOR SNOW...
$$

  *****  WEATHER ACROSS NORTHERN MINNESOTA  *****

CITY           SKY/WX    TMP DP  RH WIND       PRES   REMARKS
FLAG ISLAND    PTSUNNY   50  36  57 SW14      30.08S
WARROAD        FAIR      57  45  62 SW13      30.11S
ROSEAU         PTSUNNY   57  46  67 SW14      30.11S
HALLOCK        FAIR      61  46  59 S13       30.08F
THF RVR FALLS  FAIR      60  43  53 SW15      30.14F
6HR MIN TEMP:  57; 6HR MAX TEMP:  61;

BAUDETTE       FAIR      59  40  49 W13G22    30.12S
6HR MIN TEMP:  59; 6HR MAX TEMP:  64;

WASKISH        FAIR      50  36  57 W13       30.15S
CROOKSTON      FAIR      61  45  55 SW10      30.14F
STEPHEN NDAWN    N/A     57  48  72 S9          N/A
GREENBUSH NDAW   N/A     55  45  67 S13         N/A
$$
  *****  WEATHER ACROSS CENTRAL AND WEST MINNESOTA  *****

CITY           SKY/WX    TMP DP  RH WIND       PRES   REMARKS
FOSSTON        PTSUNNY   57  39  51 S12       30.16F
BEMIDJI        FAIR      59  32  35 SW10      30.17S
6HR MIN TEMP:  60; 6HR MAX TEMP:  64;

PARK RAPIDS    FAIR      60  35  39 W10       30.19F
6HR MIN TEMP:  59; 6HR MAX TEMP:  64;

ELBOW LAKE     FAIR      55  40  57 W9        30.22F
WADENA         FAIR      57  37  47 SW8       30.21S
DETROIT LAKES  FAIR      57  36  44 S10       30.20S
MOORHEAD       FAIR      61  39  44 S13       30.17S
FERGUS FALLS   FAIR      55  39  54 S13       30.18S
MORRIS MN      FAIR      55  39  54 S9        30.22S
STAPLES        FAIR      57  34  41 S10       30.22S
$$
  *****  WEATHER ELSEWHERE ACROSS MINNESOTA  *****

CITY           SKY/WX    TMP DP  RH WIND       PRES   REMARKS
DULUTH         FAIR      58  32  37 S9        30.21F
6HR MIN TEMP:  57; 6HR MAX TEMP:  61;

INTRNTL FALLS  FAIR      62  32  32 SW10      30.12F
6HR MIN TEMP:  59; 6HR MAX TEMP:  64;

ELY            FAIR      57  27  30 SW7       30.18S
CLOQUET        FAIR      59  25  27 SW7       30.22S
WHEATON        FAIR      55  36  47 S12       30.22F
BRAINERD       FAIR      61  32  33 S12       30.22S
6HR MIN TEMP:  59; 6HR MAX TEMP:  64;

HIBBING        FAIR      58  27  30 S8        30.19F
6HR MIN TEMP:  56; 6HR MAX TEMP:  61;

ALEXANDRIA     FAIR      60  39  45 S13       30.23S
6HR MIN TEMP:  60; 6HR MAX TEMP:  64;

SAINT CLOUD    FAIR      59  37  44 SW7       30.23F
6HR MIN TEMP:  58; 6HR MAX TEMP:  62;

MINNEAPOLIS    FAIR      62  36  37 S7        30.24S
6HR MIN TEMP:  58; 6HR MAX TEMP:  64;

$$

  *****  WEATHER ACROSS SOUTH DAKOTA  *****

CITY           SKY/WX    TMP DP  RH WIND       PRES   REMARKS
SIOUX FALLS    FAIR      59  37  44 SE13      30.19S
6HR MIN TEMP:  59; 6HR MAX TEMP:  63;

BROOKINGS      FAIR      55  39  54 SE13      30.21S
WATERTOWN      FAIR      56  39  53 S10       30.19S
6HR MIN TEMP:  56; 6HR MAX TEMP:  60;

HURON          NOT AVBL
SISSETON         N/A     58  35  42 S15       30.18F
ABERDEEN       FAIR      63  33  32 S13       30.16F
6HR MIN TEMP:  61; 6HR MAX TEMP:  66;

MITCHELL       FAIR      62  39  42 S8        30.17F
PIERRE         FAIR      63  39  41 S16       30.10F
6HR MIN TEMP:  58; 6HR MAX TEMP:  64;

MOBRIDGE       FAIR      65  39  38 S10       30.08S
RAPID CITY     FAIR      64  37  36 E6        30.06S
6HR MIN TEMP:  59; 6HR MAX TEMP:  67;

$$

  *****  SOME WEATHER IN NEARBY STATES *****

CITY           SKY/WX    TMP DP  RH WIND       PRES   REMARKS
GLASGOW MT     FAIR      64  25  22 NW10      30.09R
6HR MIN TEMP:  60; 6HR MAX TEMP:  65;

GREAT FALLS MT FAIR      57  17  21 N10G21    30.10S
6HR MIN TEMP:  51; 6HR MAX TEMP:  59;

CHEYENNE WY    FAIR      61  28  28 E7        30.11S
6HR MIN TEMP:  56; 6HR MAX TEMP:  63;

SCOTTSBLUFF NE FAIR      62  38  40 SE7       30.08F
6HR MIN TEMP:  49; 6HR MAX TEMP:  63;

OMAHA NE       PTSUNNY   69  31  24 E14       30.13S
6HR MIN TEMP:  66; 6HR MAX TEMP:  71;

DES MOINES IA  PTSUNNY   66  20  17 E10       30.17R
6HR MIN TEMP:  65; 6HR MAX TEMP:  72;

DAVENPORT IA   FAIR      61  29  29 E13       30.21S
6HR MIN TEMP:  61; 6HR MAX TEMP:  68;

CHICAGO IL     MOCLDY    55  25  31 NE12      30.24F
6HR MIN TEMP:  55; 6HR MAX TEMP:  62;

EAU CLAIRE WI  FAIR      62  31  31 S6        30.24F
6HR MIN TEMP:  59; 6HR MAX TEMP:  65;

LA CROSSE WI   FAIR      63  29  27 E7        30.24F
6HR MIN TEMP:  60; 6HR MAX TEMP:  65;

$$

  *****  SOME NATIONAL WEATHER *****

CITY           SKY/WX    TMP DP  RH WIND       PRES   REMARKS
LA GUARDIA NY  FAIR      55  21  26 S12G21    30.34R
6HR MIN TEMP:  55; 6HR MAX TEMP:  65;

RALEIGH NC     CLOUDY    64  40  41 SE7       30.28S
6HR MIN TEMP:  64; 6HR MAX TEMP:  70;

ATLANTA GA     LGT RAIN  60  59  96 E18G30    30.06S
6HR MIN TEMP:  59; 6HR MAX TEMP:  61; 6HR PCP:  0.16;

NEW ORLEANS LA FAIR      77  63  61 NW8       29.85R
6HR MIN TEMP:  77; 6HR MAX TEMP:  82;

OKLAHOMA CITY  FAIR      60  44  55 N18       30.02S
6HR MIN TEMP:  54; 6HR MAX TEMP:  63;

ALBUQUERQUE NM PTSUNNY   73  22  14 VRB3      30.04S
6HR MIN TEMP:  64; 6HR MAX TEMP:  75;

SALT LAKE CITY PTSUNNY   76  28  17 NW6       29.95F
6HR MIN TEMP:  69; 6HR MAX TEMP:  77;

LOS ANGELES CA FAIR      65  55  70 W12       29.90S
6HR MIN TEMP:  65; 6HR M



USA.gov is the U.S. government's official web portal to all federal, state and local government web resources and services.